This is the latest recevied weather packets stored in our database for station/object N5KJT. If no packets are shown the sender has not sent any weather packets the latest 10 day(s).
| Time | Temp. | Humidity | Pressure | Rain* | Wind** | Luminosity | Snow |
|---|---|---|---|---|---|---|---|
| 1788157216 | 19.44° C | 51% | 1024.1 hPa | 0 mm | - | 0 W/m² | - |
| 1788156916 | 19.44° C | 51% | 1024 hPa | 0 mm | - | 0 W/m² | - |
| 1788156616 | 20° C | 50% | 1024 hPa | 0 mm | - | 0 W/m² | - |
| 1788156316 | 20° C | 50% | 1024.1 hPa | 0 mm | - | 0 W/m² | - |
| 1788156016 | 20° C | 50% | 1024.2 hPa | 0 mm | - | 0 W/m² | - |
| 1788155716 | 20° C | 50% | 1024.2 hPa | 0 mm | - | 0 W/m² | - |
| 1788155416 | 20.56° C | 49% | 1024.2 hPa | 0 mm | - | 0 W/m² | - |
| 1788155116 | 20.56° C | 49% | 1024.2 hPa | 0 mm | - | 0 W/m² | - |
| 1788154816 | 20.56° C | 49% | 1024.2 hPa | 0 mm | - | 0 W/m² | - |
| 1788154515 | 21.11° C | 48% | 1024.2 hPa | 0 mm | - | 0 W/m² | - |
| 1788154215 | 21.11° C | 48% | 1024.1 hPa | 0 mm | - | 0 W/m² | - |
| 1788153916 | 21.11° C | 47% | 1024 hPa | 0 mm | - | 0 W/m² | - |
| 1788153616 | 21.11° C | 48% | 1024 hPa | 0 mm | - | 0 W/m² | - |
| 1788153315 | 21.11° C | 48% | 1023.9 hPa | 0 mm | - | 0 W/m² | - |
| 1788153016 | 21.11° C | 48% | 1023.8 hPa | 0 mm | - | 0 W/m² | - |
| 1788152715 | 20.56° C | 48% | 1023.8 hPa | 0 mm | - | 0 W/m² | - |
| 1788152415 | 20.56° C | 48% | 1023.8 hPa | 0 mm | - | 0 W/m² | - |
| 1788152115 | 20.56° C | 49% | 1023.8 hPa | 0 mm | - | 0 W/m² | - |
| 1788151816 | 20° C | 50% | 1023.8 hPa | 0 mm | - | 0 W/m² | - |
| 1788151515 | 20° C | 50% | 1023.8 hPa | 0 mm | - | 0 W/m² | - |
| 1788151216 | 20.56° C | 50% | 1023.7 hPa | 0 mm | - | 0 W/m² | - |
| 1788150915 | 21.11° C | 50% | 1023.6 hPa | 0 mm | - | 0 W/m² | - |
| 1788150616 | 21.11° C | 48% | 1023.5 hPa | 0 mm | - | 0 W/m² | - |
| 1788150315 | 21.11° C | 47% | 1023.4 hPa | 0 mm | - | 0 W/m² | - |
| 1788150015 | 21.67° C | 47% | 1023.4 hPa | 0 mm | - | 0 W/m² | - |
* Rain latest hour (hover to see other rain measurements)
** Current wind speed in m/s (hover to see current wind gust speed)